Date,TemperatureHighF,TemperatureAvgF,TemperatureLowF,DewpointHighF,DewpointAvgF,DewpointLowF,HumidityHigh,HumidityAvg,HumidityLow,PressureMaxIn,PressureMinIn,WindSpeedMaxMPH,WindSpeedAvgMPH,GustSpeedMaxMPH,PrecipitationSumIn
2013-9-1,86.4,73.6,64.4,47.1,41.0,31.1,52,32,14,30.03,29.72,6,1,11,0.00
2013-9-2,102.7,79.0,59.2,47.7,35.0,21.3,61,26,10,30.01,29.47,7,1,11,0.00
2013-9-3,102.6,82.9,68.5,45.0,30.8,18.1,42,18,10,29.91,29.51,11,2,17,0.00
2013-9-4,103.6,81.0,70.0,48.4,34.3,21.3,43,21,10,29.95,29.61,14,1,17,0.00
2013-9-5,102.4,80.8,64.8,48.2,35.2,20.4,54,24,10,30.04,29.55,15,1,21,0.00
2013-9-6,106.9,83.2,66.7,38.7,29.0,16.4,31,15,10,29.95,29.45,13,2,27,0.00
2013-9-7,103.6,81.9,64.9,40.8,29.3,12.2,37,17,10,29.93,29.46,10,2,17,0.00
2013-9-8,98.4,78.5,61.5,42.1,26.5,14.1,36,16,10,29.88,29.36,10,1,13,0.00
2013-9-9,90.5,70.2,60.1,53.5,40.1,19.4,74,41,10,29.94,29.43,16,2,29,0.01
2013-9-10,70.9,62.9,60.6,56.3,53.1,49.8,83,71,49,30.06,29.87,8,2,12,0.38
2013-9-11,72.9,63.7,61.0,60.9,57.3,51.4,87,81,47,30.05,29.91,8,2,17,0.65
2013-9-12,66.2,61.8,59.4,62.4,57.5,51.6,98,86,72,30.14,29.98,13,3,20,1.81
2013-9-13,88.7,67.1,58.6,62.0,52.7,30.7,94,67,13,30.06,29.47,7,1,11,0.31
2013-9-14,86.2,66.3,58.8,56.3,50.1,31.1,81,61,17,29.91,29.49,11,2,16,0.34
2013-9-15,64.9,58.6,55.6,54.0,51.6,48.3,84,78,59,30.19,29.90,10,2,15,0.38
2013-9-16,82.2,65.5,54.3,52.8,45.9,31.0,85,56,16,30.16,29.69,9,1,12,0.00
2013-9-17,94.5,73.0,56.7,49.1,33.0,14.9,72,30,10,29.96,29.39,8,2,13,0.00
2013-9-18,95.4,73.0,60.4,39.6,25.8,11.6,44,21,10,29.70,29.28,12,2,23,0.00
2013-9-19,73.0,62.8,50.9,35.8,22.7,4.2,56,24,10,30.14,29.68,11,2,16,0.00
2013-9-20,81.1,63.5,49.8,39.8,28.9,11.6,66,34,10,30.15,29.68,8,1,11,0.00
2013-9-21,92.1,70.1,49.3,42.7,28.0,9.4,71,29,10,29.98,29.41,9,1,14,0.00
2013-9-22,86.0,67.4,54.9,48.5,27.1,12.4,74,26,10,29.70,29.21,12,2,24,0.04
2013-9-23,69.1,59.4,50.5,49.7,23.1,1.3,82,37,10,30.00,29.43,14,4,27,0.59
2013-9-24,86.7,63.9,44.1,29.3,17.6,1.6,42,20,10,30.13,29.54,8,2,11,0.00
2013-9-25,90.5,68.5,43.7,34.2,21.1,7.8,68,22,10,29.80,29.02,13,2,24,0.00
2013-9-26,77.4,61.4,44.4,39.7,25.2,4.2,62,29,10,29.78,29.31,10,2,16,0.00
2013-9-27,53.6,48.1,40.8,45.3,40.5,35.0,83,75,62,30.06,29.64,10,2,16,0.18
2013-9-28,76.8,54.9,36.9,36.4,18.8,1.1,84,31,10,30.17,29.74,8,2,17,0.00
2013-9-29,86.9,62.6,42.8,28.8,19.9,0.2,46,23,10,30.11,29.48,8,2,13,0.00
2013-9-30,92.1,68.8,54.0,35.3,20.3,0.9,37,18,10,29.83,29.33,7,2,12,0.00